MDT,Max TemperatureF,Mean TemperatureF,Min TemperatureF,Max Dew PointF,MeanDew PointF,Min DewpointF,Max Humidity, Mean Humidity, Min Humidity, Max Sea Level PressureIn, Mean Sea Level PressureIn, Min Sea Level PressureIn, Max VisibilityMiles, Mean VisibilityMiles, Min VisibilityMiles, Max Wind SpeedMPH, Mean Wind SpeedMPH, Max Gust SpeedMPH,PrecipitationIn, CloudCover, Events, WindDirDegrees
2013-3-1,45,35,24,36,30,23,100,85,70,30.56,30.47,30.42,10,4,0,6,1,7,0.01,6,Fog,238
2013-3-2,45,34,22,32,25,19,96,77,58,30.51,30.32,30.04,10,5,0,9,1,13,0.00,5,Fog,189
2013-3-3,37,26,14,34,21,0,96,60,24,30.15,29.98,29.90,10,9,3,18,7,26,0.03,5,Rain-Snow,271
2013-3-4,35,19,2,11,6,-2,88,60,32,30.33,30.27,30.18,10,10,8,7,2,,0.01,0,,255
2013-3-5,40,24,7,22,13,4,83,60,37,30.23,30.06,29.82,10,10,10,6,1,9,0.00,4,,20
2013-3-6,37,31,25,31,28,20,92,77,61,29.94,29.73,29.64,10,4,0,30,5,38,0.45,8,Fog-Rain-Snow-Thunderstorm,159
2013-3-7,40,28,15,24,18,11,100,69,37,30.08,30.01,29.93,10,8,0,9,2,13,0.01,2,Fog,5
2013-3-8,41,25,8,20,14,5,100,70,40,30.06,30.00,29.90,10,10,9,16,5,21,0.01,1,,307
2013-3-9,41,30,19,20,16,12,68,53,38,30.41,30.24,30.04,10,10,10,16,9,22,0.00,0,,350
2013-3-10,41,25,9,27,15,7,88,57,25,30.49,30.41,30.32,10,10,10,9,3,13,0.00,4,,201
2013-3-11,42,37,32,31,28,19,92,66,39,30.32,30.24,30.20,10,9,3,12,4,15,0.03,8,Snow,308
2013-3-12,44,37,30,31,28,26,85,72,58,30.27,30.24,30.20,10,10,10,8,1,9,0.00,8,,134
2013-3-13,53,42,30,33,30,26,92,68,44,30.29,30.26,30.23,10,10,9,7,1,8,0.00,6,,330
2013-3-14,52,39,25,28,25,23,85,61,36,30.28,30.22,30.15,10,10,10,13,1,14,0.00,1,,160
2013-3-15,49,39,29,30,28,26,82,64,45,30.15,30.12,30.09,10,10,3,10,3,16,0.00,2,,295
2013-3-16,42,31,20,31,26,18,92,72,51,30.10,29.92,29.75,10,8,1,25,4,32,0.09,5,Rain-Snow,182
2013-3-17,33,25,17,27,17,8,84,62,39,30.12,29.93,29.75,10,6,1,25,7,35,0.06,7,Snow,262
2013-3-18,36,24,11,20,15,8,92,65,38,30.22,30.12,30.02,10,9,2,18,5,22,0.02,6,Snow,165
2013-3-19,41,24,7,22,9,2,80,51,21,30.32,30.22,30.03,10,10,10,15,3,21,0.01,3,,89
2013-3-20,42,36,29,36,31,21,96,71,45,30.01,29.79,29.63,10,6,2,24,7,32,0.53,8,Rain-Snow-Thunderstorm,181
2013-3-21,29,23,17,23,18,11,88,72,55,30.09,29.98,29.85,10,7,1,14,4,18,0.02,7,Snow,154
2013-3-22,30,22,13,17,14,8,92,69,46,30.24,30.03,29.89,10,9,2,20,6,25,0.01,6,Snow,351
2013-3-23,29,16,3,13,7,-1,87,61,35,30.38,30.32,30.25,10,10,10,13,4,14,0.00,1,,278
2013-3-24,34,19,4,12,7,0,84,56,28,30.35,30.30,30.25,10,10,9,7,2,8,0.01,0,,173
2013-3-25,42,27,11,22,13,6,84,59,34,30.25,30.16,30.02,10,10,10,6,1,7,0.00,5,,208
2013-3-26,47,37,26,29,25,22,81,62,42,30.01,29.96,29.91,10,10,10,13,3,16,0.00,5,,277
2013-3-27,47,35,22,32,27,22,92,73,53,30.05,30.01,29.97,10,10,10,7,1,9,T,7,Rain,60
2013-3-28,49,39,29,32,29,26,92,69,46,30.11,30.06,30.03,10,10,10,12,3,14,T,7,,165
2013-3-29,50,41,32,36,32,28,92,74,56,30.23,30.17,30.09,10,10,8,12,2,15,0.06,6,Rain,27
2013-3-30,56,40,24,31,23,10,92,54,16,30.31,30.24,30.16,10,10,10,8,1,10,0.00,0,,195
2013-3-31,63,42,21,22,16,1,84,47,9,30.18,30.06,29.92,10,10,10,8,1,10,0.00,0,,277